Regional Weather Roundup
Issued by NWS

Home | Current Version | Previous Version | Graphics & Text | Print | Product List | Glossary On
Versions: 1 2 3 4 5 6 7 8 9 10 11 12 13 14 15 16 17 18 19 20 21 22 23 24 25 26 27 28 29 30 31 32 33 34 35 36 37 38 39 40 41 42 43 44 45 46 47 48 49 50
000
ASUS43 KFSD 222210
RWRSD

WEATHER ROUNDUP FOR SOUTH DAKOTA
NATIONAL WEATHER SERVICE SIOUX FALLS SD
500 PM CDT FRI AUG 22 2014

NOTE: "FAIR" INDICATES FEW OR NO CLOUDS BELOW 12,000 FEET WITH NO
SIGNIFICANT WEATHER AND/OR OBSTRUCTIONS TO VISIBILITY.


SDZ001>005-009-010-012>017-222300-
NORTHWEST AND NORTH CENTRAL SOUTH DAKOTA

CITY           SKY/WX    TMP DP  RH WIND       PRES   REMARKS
BUFFALO          N/A     70  60  70 E12       29.99F
FAITH            N/A     73  63  70 NE14      30.03F
MOBRIDGE       PTSUNNY   74  65  73 N9        30.01R
$$

SDZ012>016-024>037-041>051-057-063-072>074-222300-
SOUTHWEST AND SOUTH CENTRAL SOUTH DAKOTA

CITY           SKY/WX    TMP DP  RH WIND       PRES   REMARKS
RAPID CTY ARPT CLOUDY    75  60  59 E6        30.03F
PIERRE         PTSUNNY   79  65  62 E17       29.97S
CUSTER         PTSUNNY   69  56  62 E13       30.13S
ELLSWORTH AFB  CLOUDY    75  60  59 E7        30.03F
PHILIP         PTSUNNY   83  63  50 NE5       29.97F
PINE RIDGE     CLOUDY    75  62  64 E3        30.03S
WINNER         FAIR      85  64  49 S7        29.98R
$$

SDZ004>011-016>023-039-040-222300-
NORTHEAST SOUTH DAKOTA

CITY           SKY/WX    TMP DP  RH WIND       PRES   REMARKS
ABERDEEN       PTSUNNY   76  67  73 E6        30.01R
WATERTOWN      PTSUNNY   79  67  66 E8        29.99S
SISSETON         N/A     77  70  79 N6        29.98S
$$

SDZ017-020-022-023-036>040-048>070-222300-
SOUTHEAST SOUTH DAKOTA

CITY           SKY/WX    TMP DP  RH WIND       PRES   REMARKS
SIOUX FALLS    PTSUNNY   85  68  56 E6        29.98R
HURON          CLOUDY    82  68  62 N16       29.96S
CHAMBERLAIN    CLOUDY    82  66  58 SE6       29.98R
MITCHELL       CLOUDY    83  70  64 CALM      29.96S
YANKTON        PTSUNNY   82  72  69 NE5       29.96R
$$

ABBREVIATIONS USED IN REMARKS
   TC - TEMPERATURE IN CELSIUS
  WCI - WIND CHILL INDEX
   HX - HEAT INDEX
  VSB - VISIBILITY




USA.gov is the U.S. government's official web portal to all federal, state and local government web resources and services.